Time,TemperatureF,DewpointF,PressureIn,WindDirection,WindDirectionDegrees,WindSpeedMPH,WindSpeedGustMPH,Humidity,HourlyPrecipIn,Conditions,Clouds,dailyrainin,SoftwareType,DateUTC
2013-04-28 00:01:00,50.8,35.7,30.28,SSE,164,0.0,0.0,56,0.00,,CLR,0.00,VWS V14.00,2013-04-28 04:01:00,
2013-04-28 00:02:00,50.8,35.7,30.28,SSE,164,0.0,0.0,56,0.00,,CLR,0.00,VWS V14.00,2013-04-28 04:02:00,
2013-04-28 00:07:00,50.6,35.5,30.28,SSE,164,0.0,0.0,56,0.00,,CLR,0.00,VWS V14.00,2013-04-28 04:07:00,
2013-04-28 00:12:00,50.4,35.8,30.28,SSE,164,0.0,0.0,57,0.00,,CLR,0.00,VWS V14.00,2013-04-28 04:12:00,
2013-04-28 00:17:00,50.2,36.0,30.28,SSE,164,0.0,0.0,58,0.00,,CLR,0.00,VWS V14.00,2013-04-28 04:17:00,
2013-04-28 00:22:00,49.9,36.2,30.28,SSE,164,0.0,0.0,59,0.00,,CLR,0.00,VWS V14.00,2013-04-28 04:22:00,
2013-04-28 00:27:00,49.7,36.0,30.28,SSE,164,0.0,0.0,59,0.00,,CLR,0.00,VWS V14.00,2013-04-28 04:27:00,
2013-04-28 00:32:00,49.5,35.8,30.28,SSE,164,0.0,0.0,59,0.00,,CLR,0.00,VWS V14.00,2013-04-28 04:32:00,
2013-04-28 00:41:00,49.2,35.9,30.28,North,0,0.0,0.0,60,0.00,,CLR,0.00,VWS V14.00,2013-04-28 04:41:00,
2013-04-28 00:46:00,49.1,36.2,30.28,SSE,164,0.0,0.0,61,0.00,,CLR,0.00,VWS V14.00,2013-04-28 04:46:00,
2013-04-28 00:51:00,49.0,36.2,30.28,SSE,164,0.0,0.0,61,0.00,,CLR,0.00,VWS V14.00,2013-04-28 04:51:00,
2013-04-28 00:56:00,49.0,36.2,30.28,SSE,164,0.0,0.0,61,0.00,,CLR,0.00,VWS V14.00,2013-04-28 04:56:00,
2013-04-28 01:01:00,49.0,36.2,30.28,SSE,164,0.0,0.0,61,0.00,,CLR,0.00,VWS V14.00,2013-04-28 05:01:00,
2013-04-28 01:06:00,48.9,36.1,30.28,SSE,164,0.0,0.0,61,0.00,,CLR,0.00,VWS V14.00,2013-04-28 05:06:00,
2013-04-28 01:11:00,48.8,36.4,30.28,SSE,164,0.0,0.0,62,0.00,,CLR,0.00,VWS V14.00,2013-04-28 05:11:00,
2013-04-28 01:16:00,48.7,36.7,30.27,SSE,164,0.0,0.0,63,0.00,,CLR,0.00,VWS V14.00,2013-04-28 05:16:00,
2013-04-28 01:21:00,48.6,36.6,30.27,SSE,164,0.0,0.0,63,0.00,,CLR,0.00,VWS V14.00,2013-04-28 05:21:00,
2013-04-28 01:26:00,48.5,36.9,30.27,SSE,164,0.0,0.0,64,0.00,,CLR,0.00,VWS V14.00,2013-04-28 05:26:00,
2013-04-28 01:31:00,48.3,36.7,30.27,SSE,164,0.0,0.0,64,0.00,,CLR,0.00,VWS V14.00,2013-04-28 05:31:00,
2013-04-28 01:36:00,48.2,37.0,30.27,SSE,164,0.0,0.0,65,0.00,,CLR,0.00,VWS V14.00,2013-04-28 05:36:00,
2013-04-28 01:40:00,48.1,36.9,30.27,SSE,164,0.0,0.0,65,0.00,,CLR,0.00,VWS V14.00,2013-04-28 05:40:00,
2013-04-28 01:45:00,47.9,37.1,30.27,SSE,164,0.0,0.0,66,0.00,,CLR,0.00,VWS V14.00,2013-04-28 05:45:00,
2013-04-28 01:50:00,47.8,37.0,30.27,SSE,164,0.0,0.0,66,0.00,,CLR,0.00,VWS V14.00,2013-04-28 05:50:00,
2013-04-28 01:55:00,47.7,37.3,30.27,SSE,164,0.0,0.0,67,0.00,,CLR,0.00,VWS V14.00,2013-04-28 05:55:00,
2013-04-28 02:01:00,47.5,37.1,30.26,SSE,164,0.0,0.0,67,0.00,,CLR,0.00,VWS V14.00,2013-04-28 06:01:00,
2013-04-28 02:06:00,47.4,37.0,30.26,SSE,164,0.0,0.0,67,0.00,,CLR,0.00,VWS V14.00,2013-04-28 06:06:00,
2013-04-28 02:10:00,47.2,37.2,30.26,SSE,164,0.0,0.0,68,0.00,,CLR,0.00,VWS V14.00,2013-04-28 06:10:00,
2013-04-28 02:16:00,47.1,37.5,30.26,SSE,164,0.0,0.0,69,0.00,,CLR,0.00,VWS V14.00,2013-04-28 06:16:00,
2013-04-28 02:21:00,46.9,37.3,30.26,SSE,164,0.0,0.0,69,0.00,,CLR,0.00,VWS V14.00,2013-04-28 06:21:00,
2013-04-28 02:26:00,46.9,37.3,30.26,SSE,164,0.0,0.0,69,0.00,,CLR,0.00,VWS V14.00,2013-04-28 06:26:00,
2013-04-28 02:31:00,46.8,37.5,30.26,SSE,164,0.0,0.0,70,0.00,,CLR,0.00,VWS V14.00,2013-04-28 06:31:00,
2013-04-28 02:36:00,46.6,37.7,30.26,SSE,164,0.0,0.0,71,0.00,,CLR,0.00,VWS V14.00,2013-04-28 06:36:00,
2013-04-28 02:41:00,46.5,38.0,30.26,SSE,164,0.0,0.0,72,0.00,,CLR,0.00,VWS V14.00,2013-04-28 06:41:00,
2013-04-28 02:45:00,46.3,37.8,30.26,SSE,164,0.0,0.0,72,0.00,,CLR,0.00,VWS V14.00,2013-04-28 06:45:00,
2013-04-28 02:50:00,46.3,37.8,30.26,SSE,164,0.0,0.0,72,0.00,,CLR,0.00,VWS V14.00,2013-04-28 06:50:00,
2013-04-28 02:56:00,46.1,37.9,30.26,SSE,164,0.0,0.0,73,0.00,,CLR,0.00,VWS V14.00,2013-04-28 06:56:00,
2013-04-28 03:01:00,46.0,37.8,30.25,SSE,164,0.0,0.0,73,0.00,,CLR,0.00,VWS V14.00,2013-04-28 07:01:00,
2013-04-28 03:06:00,45.9,38.1,30.25,SSE,164,0.0,0.0,74,0.00,,CLR,0.00,VWS V14.00,2013-04-28 07:06:00,
2013-04-28 03:11:00,45.8,38.0,30.25,SSE,164,0.0,0.0,74,0.00,,CLR,0.00,VWS V14.00,2013-04-28 07:11:00,
2013-04-28 03:16:00,45.6,37.8,30.25,SSE,164,0.0,0.0,74,0.00,,CLR,0.00,VWS V14.00,2013-04-28 07:16:00,
2013-04-28 03:21:00,45.5,38.0,30.25,SSE,164,0.0,0.0,75,0.00,,CLR,0.00,VWS V14.00,2013-04-28 07:21:00,
2013-04-28 03:26:00,45.4,38.0,30.25,SSE,164,0.0,0.0,75,0.00,,CLR,0.00,VWS V14.00,2013-04-28 07:26:00,
2013-04-28 03:31:00,45.3,37.9,30.25,SSE,164,0.0,0.0,75,0.00,,CLR,0.00,VWS V14.00,2013-04-28 07:31:00,
2013-04-28 03:36:00,45.2,38.1,30.25,SSE,164,0.0,0.0,76,0.00,,CLR,0.00,VWS V14.00,2013-04-28 07:36:00,
2013-04-28 03:41:00,45.1,38.0,30.25,SSE,164,0.0,0.0,76,0.00,,CLR,0.00,VWS V14.00,2013-04-28 07:41:00,
2013-04-28 03:46:00,45.0,38.2,30.25,SSE,164,0.0,0.0,77,0.00,,CLR,0.00,VWS V14.00,2013-04-28 07:46:00,
2013-04-28 03:51:00,45.0,38.2,30.25,SSE,164,0.0,0.0,77,0.00,,CLR,0.00,VWS V14.00,2013-04-28 07:51:00,
2013-04-28 03:56:00,44.9,38.5,30.25,SSE,164,0.0,0.0,78,0.00,,CLR,0.00,VWS V14.00,2013-04-28 07:56:00,
2013-04-28 04:01:00,44.7,38.3,30.26,SSE,164,0.0,0.0,78,0.00,,CLR,0.00,VWS V14.00,2013-04-28 08:01:00,
2013-04-28 04:06:00,44.6,38.2,30.26,SSE,164,0.0,0.0,78,0.00,,CLR,0.00,VWS V14.00,2013-04-28 08:06:00,
2013-04-28 04:11:00,44.6,38.2,30.26,SSE,164,0.0,0.0,78,0.00,,CLR,0.00,VWS V14.00,2013-04-28 08:11:00,
2013-04-28 04:16:00,44.5,38.4,30.25,SSE,164,0.0,0.0,79,0.00,,CLR,0.00,VWS V14.00,2013-04-28 08:16:00,
2013-04-28 04:21:00,44.4,38.3,30.25,SSE,164,0.0,0.0,79,0.00,,CLR,0.00,VWS V14.00,2013-04-28 08:21:00,
2013-04-28 04:26:00,44.3,38.2,30.25,SSE,164,0.0,0.0,79,0.00,,CLR,0.00,VWS V14.00,2013-04-28 08:26:00,
2013-04-28 04:31:00,44.1,38.3,30.25,SSE,164,0.0,0.0,80,0.00,,CLR,0.00,VWS V14.00,2013-04-28 08:31:00,
2013-04-28 04:36:00,44.0,38.2,30.25,SSE,164,0.0,0.0,80,0.00,,CLR,0.00,VWS V14.00,2013-04-28 08:36:00,
2013-04-28 04:41:00,43.9,38.1,30.25,SSE,164,0.0,0.0,80,0.00,,CLR,0.00,VWS V14.00,2013-04-28 08:41:00,
2013-04-28 04:46:00,43.8,38.0,30.25,SSE,164,0.0,0.0,80,0.00,,CLR,0.00,VWS V14.00,2013-04-28 08:46:00,
2013-04-28 04:51:00,43.7,38.3,30.25,SSE,164,0.0,0.0,81,0.00,,CLR,0.00,VWS V14.00,2013-04-28 08:51:00,
2013-04-28 04:56:00,43.5,38.1,30.25,SSE,164,0.0,0.0,81,0.00,,CLR,0.00,VWS V14.00,2013-04-28 08:56:00,
2013-04-28 05:06:00,43.3,37.9,30.25,North,0,0.0,0.0,81,0.00,,CLR,0.00,VWS V14.00,2013-04-28 09:06:00,
2013-04-28 05:11:00,43.2,37.8,30.25,SSE,164,0.0,0.0,81,0.00,,CLR,0.00,VWS V14.00,2013-04-28 09:11:00,
2013-04-28 05:16:00,43.0,37.9,30.25,SSE,164,0.0,0.0,82,0.00,,CLR,0.00,VWS V14.00,2013-04-28 09:16:00,
2013-04-28 05:21:00,42.9,37.8,30.25,SSE,164,0.0,0.0,82,0.00,,CLR,0.00,VWS V14.00,2013-04-28 09:21:00,
2013-04-28 05:26:00,42.8,37.7,30.25,SSE,164,0.0,0.0,82,0.00,,CLR,0.00,VWS V14.00,2013-04-28 09:26:00,
2013-04-28 05:31:00,42.7,37.6,30.25,SSE,164,0.0,0.0,82,0.00,,CLR,0.00,VWS V14.00,2013-04-28 09:31:00,
2013-04-28 05:36:00,42.6,37.8,30.25,SSE,164,0.0,0.0,83,0.00,,CLR,0.00,VWS V14.00,2013-04-28 09:36:00,
2013-04-28 05:41:00,42.4,37.6,30.25,SSE,164,0.0,0.0,83,0.00,,CLR,0.00,VWS V14.00,2013-04-28 09:41:00,
2013-04-28 05:46:00,42.3,37.5,30.25,SSE,164,0.0,0.0,83,0.00,,CLR,0.00,VWS V14.00,2013-04-28 09:46:00,
2013-04-28 05:51:00,42.2,37.4,30.25,SSE,164,0.0,0.0,83,0.00,,CLR,0.00,VWS V14.00,2013-04-28 09:51:00,
2013-04-28 05:56:00,42.0,37.2,30.25,SSE,164,0.0,0.0,83,0.00,,CLR,0.00,VWS V14.00,2013-04-28 09:56:00,
2013-04-28 06:01:00,41.8,37.0,30.25,SSE,164,0.0,0.0,83,0.00,,CLR,0.00,VWS V14.00,2013-04-28 10:01:00,
2013-04-28 06:06:00,41.7,36.9,30.25,SSE,164,0.0,0.0,83,0.00,,CLR,0.00,VWS V14.00,2013-04-28 10:06:00,
2013-04-28 06:11:00,41.7,37.2,30.25,SSE,164,0.0,0.0,84,0.00,,CLR,0.00,VWS V14.00,2013-04-28 10:11:00,
2013-04-28 06:16:00,41.6,37.1,30.26,SSE,164,0.0,0.0,84,0.00,,CLR,0.00,VWS V14.00,2013-04-28 10:16:00,
2013-04-28 06:21:00,41.6,37.1,30.26,SSE,164,0.0,0.0,84,0.00,,CLR,0.00,VWS V14.00,2013-04-28 10:21:00,
2013-04-28 06:26:00,41.5,37.0,30.26,SSE,164,0.0,0.0,84,0.00,,CLR,0.00,VWS V14.00,2013-04-28 10:26:00,
2013-04-28 06:31:00,41.5,37.0,30.26,SSE,164,0.0,0.0,84,0.00,,CLR,0.00,VWS V14.00,2013-04-28 10:31:00,
2013-04-28 06:36:00,41.5,37.0,30.26,SSE,164,0.0,0.0,84,0.00,,CLR,0.00,VWS V14.00,2013-04-28 10:36:00,
2013-04-28 06:41:00,41.5,37.3,30.26,SSE,164,0.0,0.0,85,0.00,,CLR,0.00,VWS V14.00,2013-04-28 10:41:00,
2013-04-28 06:46:00,41.6,37.4,30.26,SSE,164,0.0,0.0,85,0.00,,CLR,0.00,VWS V14.00,2013-04-28 10:46:00,
2013-04-28 06:51:00,41.7,37.5,30.26,SSE,164,0.0,0.0,85,0.00,,CLR,0.00,VWS V14.00,2013-04-28 10:51:00,
2013-04-28 07:00:00,42.1,37.9,30.27,SSE,164,0.0,0.0,85,0.00,,CLR,0.00,VWS V14.00,2013-04-28 11:00:00,
2013-04-28 07:05:00,42.3,38.4,30.27,SSE,164,0.0,0.0,86,0.00,,CLR,0.00,VWS V14.00,2013-04-28 11:05:00,
2013-04-28 07:10:00,42.5,38.6,30.27,SSE,164,0.0,0.0,86,0.00,,CLR,0.00,VWS V14.00,2013-04-28 11:10:00,
2013-04-28 07:15:00,42.9,39.0,30.28,SSE,164,0.0,0.0,86,0.00,,CLR,0.00,VWS V14.00,2013-04-28 11:15:00,
2013-04-28 07:20:00,43.2,39.3,30.28,SSE,164,0.0,0.0,86,0.00,,CLR,0.00,VWS V14.00,2013-04-28 11:20:00,
2013-04-28 07:25:00,43.6,39.7,30.28,SSE,164,0.0,0.0,86,0.00,,CLR,0.00,VWS V14.00,2013-04-28 11:25:00,
2013-04-28 07:30:00,44.1,40.2,30.28,SSE,164,0.0,0.0,86,0.00,,CLR,0.00,VWS V14.00,2013-04-28 11:30:00,
2013-04-28 07:35:00,44.5,40.6,30.28,SSE,164,0.0,0.0,86,0.00,,CLR,0.00,VWS V14.00,2013-04-28 11:35:00,
2013-04-28 07:40:00,45.0,41.1,30.28,SSE,164,0.0,0.0,86,0.00,,CLR,0.00,VWS V14.00,2013-04-28 11:40:00,
2013-04-28 07:45:00,45.5,41.6,30.28,SSE,164,0.0,0.0,86,0.00,,CLR,0.00,VWS V14.00,2013-04-28 11:45:00,
2013-04-28 07:50:00,46.2,42.0,30.28,SSE,164,0.0,0.0,85,0.00,,CLR,0.00,VWS V14.00,2013-04-28 11:50:00,
2013-04-28 07:55:00,47.0,42.4,30.28,SSE,164,0.0,0.0,84,0.00,,CLR,0.00,VWS V14.00,2013-04-28 11:55:00,
2013-04-28 08:00:00,48.0,42.5,30.29,SSE,164,0.0,0.0,81,0.00,,CLR,0.00,VWS V14.00,2013-04-28 12:00:00,
2013-04-28 08:05:00,49.7,42.8,30.29,SSE,164,0.0,0.0,77,0.00,,CLR,0.00,VWS V14.00,2013-04-28 12:05:00,
2013-04-28 08:10:00,51.9,42.8,30.29,SSE,164,0.0,0.0,71,0.00,,CLR,0.00,VWS V14.00,2013-04-28 12:10:00,
2013-04-28 08:15:00,53.9,43.2,30.30,SSE,164,0.0,0.0,67,0.00,,CLR,0.00,VWS V14.00,2013-04-28 12:15:00,
2013-04-28 08:20:00,55.2,43.7,30.30,SSE,164,0.0,0.0,65,0.00,,CLR,0.00,VWS V14.00,2013-04-28 12:20:00,
2013-04-28 08:25:00,56.3,44.7,30.30,South,181,0.0,1.0,65,0.00,,CLR,0.00,VWS V14.00,2013-04-28 12:25:00,
2013-04-28 08:30:00,56.9,44.0,30.29,South,181,0.0,1.0,62,0.00,,CLR,0.00,VWS V14.00,2013-04-28 12:30:00,
2013-04-28 08:35:00,57.8,44.5,30.29,South,180,0.0,0.0,61,0.00,,CLR,0.00,VWS V14.00,2013-04-28 12:35:00,
2013-04-28 08:40:00,57.5,44.2,30.29,South,173,1.0,3.0,61,0.00,,CLR,0.00,VWS V14.00,2013-04-28 12:40:00,
2013-04-28 08:45:00,58.6,46.1,30.28,South,173,0.0,3.0,63,0.00,,CLR,0.00,VWS V14.00,2013-04-28 12:45:00,
2013-04-28 08:50:00,59.0,44.7,30.28,South,173,1.0,1.0,59,0.00,,CLR,0.00,VWS V14.00,2013-04-28 12:50:00,
2013-04-28 08:55:00,59.6,46.2,30.28,South,172,0.0,1.0,61,0.00,,CLR,0.00,VWS V14.00,2013-04-28 12:55:00,
2013-04-28 09:00:00,60.3,45.5,30.28,SW,232,0.0,1.0,58,0.00,,CLR,0.00,VWS V14.00,2013-04-28 13:00:00,
2013-04-28 09:05:00,60.6,45.3,30.28,SW,222,0.0,1.0,57,0.00,,CLR,0.00,VWS V14.00,2013-04-28 13:05:00,
2013-04-28 09:10:00,60.8,45.0,30.28,SW,222,0.0,1.0,56,0.00,,CLR,0.00,VWS V14.00,2013-04-28 13:10:00,
2013-04-28 09:15:00,61.2,44.4,30.28,South,179,0.0,4.0,54,0.00,,CLR,0.00,VWS V14.00,2013-04-28 13:15:00,
2013-04-28 09:20:00,62.7,46.3,30.28,SSW,207,1.0,2.0,55,0.00,,CLR,0.00,VWS V14.00,2013-04-28 13:20:00,
2013-04-28 09:25:00,63.4,43.9,30.28,WSW,257,0.0,4.0,49,0.00,,CLR,0.00,VWS V14.00,2013-04-28 13:25:00,
2013-04-28 09:30:00,63.3,45.4,30.27,West,275,0.0,1.0,52,0.00,,CLR,0.00,VWS V14.00,2013-04-28 13:30:00,
2013-04-28 09:35:00,63.4,46.0,30.27,WNW,286,0.0,2.0,53,0.00,,CLR,0.00,VWS V14.00,2013-04-28 13:35:00,
2013-04-28 09:40:00,63.8,45.9,30.27,SSW,204,1.0,3.0,52,0.00,,CLR,0.00,VWS V14.00,2013-04-28 13:40:00,
2013-04-28 09:45:00,63.4,45.0,30.27,South,172,1.0,6.0,51,0.00,,CLR,0.00,VWS V14.00,2013-04-28 13:45:00,
2013-04-28 09:50:00,63.4,44.5,30.27,SSE,161,2.0,6.0,50,0.00,,CLR,0.00,VWS V14.00,2013-04-28 13:50:00,
2013-04-28 09:55:00,64.0,46.0,30.27,SSW,211,1.0,3.0,52,0.00,,CLR,0.00,VWS V14.00,2013-04-28 13:55:00,
2013-04-28 10:00:00,64.6,45.0,30.27,SSE,163,2.0,6.0,49,0.00,,CLR,0.00,VWS V14.00,2013-04-28 14:00:00,
2013-04-28 10:05:00,63.8,46.4,30.27,West,273,2.0,6.0,53,0.00,,CLR,0.00,VWS V14.00,2013-04-28 14:05:00,
2013-04-28 10:10:00,64.3,43.7,30.27,SW,219,0.0,4.0,47,0.00,,CLR,0.00,VWS V14.00,2013-04-28 14:10:00,
2013-04-28 10:15:00,64.5,45.5,30.27,South,184,0.0,4.0,50,0.00,,CLR,0.00,VWS V14.00,2013-04-28 14:15:00,
2013-04-28 10:20:00,65.0,47.0,30.27,South,182,0.0,4.0,52,0.00,,CLR,0.00,VWS V14.00,2013-04-28 14:20:00,
2013-04-28 10:25:00,64.8,44.1,30.27,SSE,153,1.0,3.0,47,0.00,,CLR,0.00,VWS V14.00,2013-04-28 14:25:00,
2013-04-28 10:30:00,65.2,47.7,30.27,SSW,211,0.0,5.0,53,0.00,,CLR,0.00,VWS V14.00,2013-04-28 14:30:00,
2013-04-28 10:35:00,65.2,46.1,30.27,SSW,195,0.0,2.0,50,0.00,,CLR,0.00,VWS V14.00,2013-04-28 14:35:00,
2013-04-28 10:40:00,65.8,46.7,30.27,South,188,0.0,4.0,50,0.00,,CLR,0.00,VWS V14.00,2013-04-28 14:40:00,
2013-04-28 10:45:00,66.5,48.9,30.27,SSW,196,1.0,4.0,53,0.00,,CLR,0.00,VWS V14.00,2013-04-28 14:45:00,
2013-04-28 10:50:00,66.5,45.7,30.27,SSE,158,1.0,2.0,47,0.00,,CLR,0.00,VWS V14.00,2013-04-28 14:50:00,
2013-04-28 10:55:00,65.2,45.0,30.27,SSW,209,3.0,7.0,48,0.00,,CLR,0.00,VWS V14.00,2013-04-28 14:55:00,
2013-04-28 11:06:00,68.0,45.3,30.27,South,180,2.0,7.0,44,0.00,,CLR,0.00,VWS V14.00,2013-04-28 15:06:00,
2013-04-28 11:11:00,67.6,46.7,30.27,SW,221,1.0,3.0,47,0.00,,CLR,0.00,VWS V14.00,2013-04-28 15:11:00,
2013-04-28 11:16:00,67.6,44.9,30.26,SE,144,6.0,7.0,44,0.00,,CLR,0.00,VWS V14.00,2013-04-28 15:16:00,
2013-04-28 11:21:00,66.9,44.3,30.26,South,190,7.0,10.0,44,0.00,,CLR,0.00,VWS V14.00,2013-04-28 15:21:00,
2013-04-28 11:26:00,67.1,45.1,30.26,SSE,165,1.0,5.0,45,0.00,,CLR,0.00,VWS V14.00,2013-04-28 15:26:00,
2013-04-28 11:31:00,66.9,44.3,30.26,SE,128,1.0,1.0,44,0.00,,CLR,0.00,VWS V14.00,2013-04-28 15:31:00,
2013-04-28 11:36:00,66.7,45.3,30.26,SSE,162,4.0,7.0,46,0.00,,CLR,0.00,VWS V14.00,2013-04-28 15:36:00,
2013-04-28 11:41:00,66.7,46.4,30.26,South,187,1.0,4.0,48,0.00,,CLR,0.00,VWS V14.00,2013-04-28 15:41:00,
2013-04-28 11:46:00,67.7,46.8,30.27,SSE,150,2.0,2.0,47,0.00,,CLR,0.00,VWS V14.00,2013-04-28 15:46:00,
2013-04-28 11:51:00,68.6,45.8,30.27,South,176,2.0,5.0,44,0.00,,CLR,0.00,VWS V14.00,2013-04-28 15:51:00,
2013-04-28 11:56:00,68.9,43.6,30.27,SSW,211,2.0,6.0,40,0.00,,CLR,0.00,VWS V14.00,2013-04-28 15:56:00,
2013-04-28 12:01:00,69.2,47.6,30.26,South,170,0.0,0.0,46,0.00,,CLR,0.00,VWS V14.00,2013-04-28 16:01:00,
2013-04-28 12:06:00,69.3,45.2,30.26,SSE,158,2.0,5.0,42,0.00,,CLR,0.00,VWS V14.00,2013-04-28 16:06:00,
2013-04-28 12:11:00,69.4,46.0,30.26,South,175,4.0,7.0,43,0.00,,CLR,0.00,VWS V14.00,2013-04-28 16:11:00,
2013-04-28 12:16:00,68.8,44.2,30.26,South,174,4.0,6.0,41,0.00,,CLR,0.00,VWS V14.00,2013-04-28 16:16:00,
2013-04-28 12:21:00,68.8,47.2,30.26,South,173,1.0,4.0,46,0.00,,CLR,0.00,VWS V14.00,2013-04-28 16:21:00,
2013-04-28 12:26:00,68.5,43.9,30.26,ESE,106,2.0,3.0,41,0.00,,CLR,0.00,VWS V14.00,2013-04-28 16:26:00,
2013-04-28 12:31:00,68.1,44.8,30.25,SE,144,3.0,4.0,43,0.00,,CLR,0.00,VWS V14.00,2013-04-28 16:31:00,
2013-04-28 12:36:00,68.0,44.7,30.25,SE,144,5.0,6.0,43,0.00,,CLR,0.00,VWS V14.00,2013-04-28 16:36:00,
2013-04-28 12:41:00,67.7,44.4,30.25,SW,230,4.0,4.0,43,0.00,,CLR,0.00,VWS V14.00,2013-04-28 16:41:00,
2013-04-28 12:46:00,67.5,44.2,30.25,WSW,240,1.0,1.0,43,0.00,,CLR,0.00,VWS V14.00,2013-04-28 16:46:00,
2013-04-28 12:51:00,67.8,44.5,30.25,SSE,149,1.0,1.0,43,0.00,,CLR,0.00,VWS V14.00,2013-04-28 16:51:00,
2013-04-28 12:56:00,68.0,46.5,30.25,South,182,4.0,4.0,46,0.00,,CLR,0.00,VWS V14.00,2013-04-28 16:56:00,
2013-04-28 13:01:00,69.0,46.2,30.25,SW,229,3.0,3.0,44,0.00,,CLR,0.00,VWS V14.00,2013-04-28 17:01:00,
2013-04-28 13:06:00,69.8,46.3,30.25,SSW,203,2.0,2.0,43,0.00,,CLR,0.00,VWS V14.00,2013-04-28 17:06:00,
2013-04-28 13:11:00,70.3,48.0,30.25,SW,215,5.0,5.0,45,0.00,,CLR,0.00,VWS V14.00,2013-04-28 17:11:00,
2013-04-28 13:16:00,70.6,45.8,30.24,ESE,121,0.0,1.0,41,0.00,,CLR,0.00,VWS V14.00,2013-04-28 17:16:00,
2013-04-28 13:21:00,70.9,46.7,30.24,SSE,167,1.0,4.0,42,0.00,,CLR,0.00,VWS V14.00,2013-04-28 17:21:00,
2013-04-28 13:26:00,71.2,47.0,30.24,SSE,149,4.0,5.0,42,0.00,,CLR,0.00,VWS V14.00,2013-04-28 17:26:00,
2013-04-28 13:31:00,70.7,45.9,30.23,SSE,163,5.0,7.0,41,0.00,,CLR,0.00,VWS V14.00,2013-04-28 17:31:00,
2013-04-28 13:36:00,70.5,48.2,30.23,SW,234,3.0,5.0,45,0.00,,CLR,0.00,VWS V14.00,2013-04-28 17:36:00,
2013-04-28 13:41:00,70.7,45.9,30.23,South,190,2.0,3.0,41,0.00,,CLR,0.00,VWS V14.00,2013-04-28 17:41:00,
2013-04-28 13:46:00,71.1,46.2,30.23,SSW,205,6.0,7.0,41,0.00,,CLR,0.00,VWS V14.00,2013-04-28 17:46:00,
2013-04-28 13:51:00,71.2,45.7,30.23,SW,236,3.0,4.0,40,0.00,,CLR,0.00,VWS V14.00,2013-04-28 17:51:00,
2013-04-28 13:56:00,71.3,46.4,30.23,SSW,193,0.0,5.0,41,0.00,,CLR,0.00,VWS V14.00,2013-04-28 17:56:00,
2013-04-28 14:01:00,71.3,45.1,30.23,WNW,287,1.0,4.0,39,0.00,,CLR,0.00,VWS V14.00,2013-04-28 18:01:00,
2013-04-28 14:06:00,71.3,45.8,30.23,West,277,3.0,6.0,40,0.00,,CLR,0.00,VWS V14.00,2013-04-28 18:06:00,
2013-04-28 14:11:00,70.9,44.0,30.23,SSW,199,6.0,9.0,38,0.00,,CLR,0.00,VWS V14.00,2013-04-28 18:11:00,
2013-04-28 14:16:00,70.3,44.2,30.22,SW,231,4.0,4.0,39,0.00,,CLR,0.00,VWS V14.00,2013-04-28 18:16:00,
2013-04-28 14:21:00,70.1,44.7,30.22,South,173,2.0,4.0,40,0.00,,CLR,0.00,VWS V14.00,2013-04-28 18:21:00,
2013-04-28 14:26:00,70.1,47.8,30.22,SSE,161,1.0,3.0,45,0.00,,CLR,0.00,VWS V14.00,2013-04-28 18:26:00,
2013-04-28 14:31:00,70.5,46.3,30.22,SSW,205,0.0,1.0,42,0.00,,CLR,0.00,VWS V14.00,2013-04-28 18:31:00,
2013-04-28 14:36:00,70.7,44.5,30.22,SSW,205,3.0,5.0,39,0.00,,CLR,0.00,VWS V14.00,2013-04-28 18:36:00,
2013-04-28 14:41:00,70.3,44.9,30.22,SSE,160,1.0,5.0,40,0.00,,CLR,0.00,VWS V14.00,2013-04-28 18:41:00,
2013-04-28 14:46:00,70.3,44.9,30.22,West,261,0.0,5.0,40,0.00,,CLR,0.00,VWS V14.00,2013-04-28 18:46:00,
2013-04-28 14:51:00,70.3,44.9,30.22,SE,134,3.0,4.0,40,0.00,,CLR,0.00,VWS V14.00,2013-04-28 18:51:00,
2013-04-28 14:56:00,69.8,44.4,30.22,SSW,210,1.0,3.0,40,0.00,,CLR,0.00,VWS V14.00,2013-04-28 18:56:00,
2013-04-28 15:06:00,69.6,45.5,30.21,SW,225,2.0,10.0,42,0.00,,CLR,0.00,VWS V14.00,2013-04-28 19:06:00,
2013-04-28 15:11:00,69.5,44.8,30.21,SW,229,2.0,3.0,41,0.00,,CLR,0.00,VWS V14.00,2013-04-28 19:11:00,
2013-04-28 15:16:00,69.8,45.1,30.21,South,186,3.0,7.0,41,0.00,,CLR,0.00,VWS V14.00,2013-04-28 19:16:00,
2013-04-28 15:21:00,70.1,44.0,30.21,SSW,194,2.0,7.0,39,0.00,,CLR,0.00,VWS V14.00,2013-04-28 19:21:00,
2013-04-28 15:26:00,70.2,46.1,30.21,ENE,72,2.0,3.0,42,0.00,,CLR,0.00,VWS V14.00,2013-04-28 19:26:00,
2013-04-28 15:31:00,70.7,45.9,30.20,SW,234,1.0,3.0,41,0.00,,CLR,0.00,VWS V14.00,2013-04-28 19:31:00,
2013-04-28 15:36:00,70.6,43.1,30.20,South,184,1.0,1.0,37,0.00,,CLR,0.00,VWS V14.00,2013-04-28 19:36:00,
2013-04-28 15:41:00,70.4,42.9,30.20,SE,139,0.0,2.0,37,0.00,,CLR,0.00,VWS V14.00,2013-04-28 19:41:00,
2013-04-28 15:46:00,70.5,42.3,30.20,SSE,166,3.0,6.0,36,0.00,,CLR,0.00,VWS V14.00,2013-04-28 19:46:00,
2013-04-28 15:51:00,70.2,41.3,30.20,SSW,213,2.0,5.0,35,0.00,,CLR,0.00,VWS V14.00,2013-04-28 19:51:00,
2013-04-28 15:56:00,69.7,42.3,30.20,SW,221,2.0,8.0,37,0.00,,CLR,0.00,VWS V14.00,2013-04-28 19:56:00,
2013-04-28 16:01:00,69.4,42.7,30.19,South,188,6.0,7.0,38,0.00,,CLR,0.00,VWS V14.00,2013-04-28 20:01:00,
2013-04-28 16:06:00,69.0,42.4,30.19,SW,217,3.0,9.0,38,0.00,,CLR,0.00,VWS V14.00,2013-04-28 20:06:00,
2013-04-28 16:11:00,68.7,40.7,30.19,SSE,155,4.0,7.0,36,0.00,,CLR,0.00,VWS V14.00,2013-04-28 20:11:00,
2013-04-28 16:16:00,68.3,39.6,30.19,South,172,1.0,4.0,35,0.00,,CLR,0.00,VWS V14.00,2013-04-28 20:16:00,
2013-04-28 16:21:00,68.0,38.6,30.19,South,177,2.0,5.0,34,0.00,,CLR,0.00,VWS V14.00,2013-04-28 20:21:00,
2013-04-28 16:26:00,67.8,41.3,30.19,South,178,5.0,5.0,38,0.00,,CLR,0.00,VWS V14.00,2013-04-28 20:26:00,
2013-04-28 16:31:00,67.9,41.4,30.19,SW,214,0.0,4.0,38,0.00,,CLR,0.00,VWS V14.00,2013-04-28 20:31:00,
2013-04-28 16:36:00,67.8,40.6,30.19,SW,219,5.0,6.0,37,0.00,,CLR,0.00,VWS V14.00,2013-04-28 20:36:00,
2013-04-28 16:41:00,67.7,41.2,30.19,SSE,163,4.0,6.0,38,0.00,,CLR,0.00,VWS V14.00,2013-04-28 20:41:00,
2013-04-28 16:46:00,67.6,39.7,30.19,SSW,199,2.0,5.0,36,0.00,,CLR,0.00,VWS V14.00,2013-04-28 20:46:00,
2013-04-28 16:51:00,67.5,41.0,30.19,SW,214,3.0,3.0,38,0.00,,CLR,0.00,VWS V14.00,2013-04-28 20:51:00,
2013-04-28 16:56:00,67.5,41.0,30.19,South,188,5.0,9.0,38,0.00,,CLR,0.00,VWS V14.00,2013-04-28 20:56:00,
2013-04-28 17:01:00,67.2,40.8,30.18,South,190,3.0,11.0,38,0.00,,CLR,0.00,VWS V14.00,2013-04-28 21:01:00,
2013-04-28 17:06:00,66.9,38.4,30.18,SSE,160,0.0,10.0,35,0.00,,CLR,0.00,VWS V14.00,2013-04-28 21:06:00,
2013-04-28 17:11:00,66.6,40.2,30.18,South,171,0.0,3.0,38,0.00,,CLR,0.00,VWS V14.00,2013-04-28 21:11:00,
2013-04-28 17:16:00,66.5,39.5,30.18,SSE,166,0.0,3.0,37,0.00,,CLR,0.00,VWS V14.00,2013-04-28 21:16:00,
2013-04-28 17:21:00,66.5,40.8,30.18,WSW,237,4.0,6.0,39,0.00,,CLR,0.00,VWS V14.00,2013-04-28 21:21:00,
2013-04-28 17:26:00,66.3,40.0,30.18,South,169,0.0,0.0,38,0.00,,CLR,0.00,VWS V14.00,2013-04-28 21:26:00,
2013-04-28 17:31:00,66.3,40.6,30.18,SW,214,4.0,5.0,39,0.00,,CLR,0.00,VWS V14.00,2013-04-28 21:31:00,
2013-04-28 17:36:00,66.2,39.9,30.18,SSE,155,0.0,4.0,38,0.00,,CLR,0.00,VWS V14.00,2013-04-28 21:36:00,
2013-04-28 17:41:00,66.1,40.5,30.18,ESE,118,1.0,3.0,39,0.00,,CLR,0.00,VWS V14.00,2013-04-28 21:41:00,
2013-04-28 17:46:00,65.9,39.6,30.17,SSW,199,2.0,7.0,38,0.00,,CLR,0.00,VWS V14.00,2013-04-28 21:46:00,
2013-04-28 17:51:00,65.7,39.4,30.17,SE,144,0.0,3.0,38,0.00,,CLR,0.00,VWS V14.00,2013-04-28 21:51:00,
2013-04-28 17:56:00,65.6,40.0,30.17,SW,227,1.0,3.0,39,0.00,,CLR,0.00,VWS V14.00,2013-04-28 21:56:00,
2013-04-28 18:01:00,65.5,40.6,30.17,SSE,168,2.0,6.0,40,0.00,,CLR,0.00,VWS V14.00,2013-04-28 22:01:00,
2013-04-28 18:06:00,65.4,39.8,30.17,South,169,2.0,2.0,39,0.00,,CLR,0.00,VWS V14.00,2013-04-28 22:06:00,
2013-04-28 18:11:00,65.1,37.5,30.17,South,185,2.0,7.0,36,0.00,,CLR,0.00,VWS V14.00,2013-04-28 22:11:00,
2013-04-28 18:16:00,64.9,38.7,30.17,ESE,122,0.0,5.0,38,0.00,,CLR,0.00,VWS V14.00,2013-04-28 22:16:00,
2013-04-28 18:21:00,64.7,39.2,30.17,SSW,199,1.0,5.0,39,0.00,,CLR,0.00,VWS V14.00,2013-04-28 22:21:00,
2013-04-28 18:26:00,64.6,37.8,30.17,South,191,0.0,2.0,37,0.00,,CLR,0.00,VWS V14.00,2013-04-28 22:26:00,
2013-04-28 18:31:00,64.5,38.3,30.17,SSW,198,1.0,1.0,38,0.00,,CLR,0.00,VWS V14.00,2013-04-28 22:31:00,
2013-04-28 18:36:00,64.4,38.3,30.17,SSW,207,3.0,3.0,38,0.00,,CLR,0.00,VWS V14.00,2013-04-28 22:36:00,
2013-04-28 18:41:00,64.3,39.5,30.17,South,171,3.0,4.0,40,0.00,,CLR,0.00,VWS V14.00,2013-04-28 22:41:00,
2013-04-28 18:46:00,64.1,37.3,30.17,SSE,157,9.0,9.0,37,0.00,,CLR,0.00,VWS V14.00,2013-04-28 22:46:00,
2013-04-28 18:51:00,63.9,37.1,30.17,SSW,192,0.0,5.0,37,0.00,,CLR,0.00,VWS V14.00,2013-04-28 22:51:00,
2013-04-28 18:56:00,63.8,37.0,30.17,SSE,159,3.0,4.0,37,0.00,,CLR,0.00,VWS V14.00,2013-04-28 22:56:00,
2013-04-28 19:01:00,63.6,38.2,30.17,South,182,0.0,0.0,39,0.00,,CLR,0.00,VWS V14.00,2013-04-28 23:01:00,
2013-04-28 19:06:00,63.4,37.4,30.17,SE,143,3.0,4.0,38,0.00,,CLR,0.00,VWS V14.00,2013-04-28 23:06:00,
2013-04-28 19:11:00,63.2,38.5,30.17,South,173,1.0,4.0,40,0.00,,CLR,0.00,VWS V14.00,2013-04-28 23:11:00,
2013-04-28 19:16:00,62.9,37.6,30.17,SSE,166,2.0,3.0,39,0.00,,CLR,0.00,VWS V14.00,2013-04-28 23:16:00,
2013-04-28 19:21:00,62.6,37.3,30.17,South,178,1.0,5.0,39,0.00,,CLR,0.00,VWS V14.00,2013-04-28 23:21:00,
2013-04-28 19:26:00,62.4,37.1,30.17,SSW,207,0.0,1.0,39,0.00,,CLR,0.00,VWS V14.00,2013-04-28 23:26:00,
2013-04-28 19:31:00,62.2,37.0,30.17,East,98,3.0,5.0,39,0.00,,CLR,0.00,VWS V14.00,2013-04-28 23:31:00,
2013-04-28 19:36:00,62.0,37.4,30.17,SE,128,1.0,2.0,40,0.00,,CLR,0.00,VWS V14.00,2013-04-28 23:36:00,
2013-04-28 19:41:00,61.7,36.5,30.17,South,190,0.0,5.0,39,0.00,,CLR,0.00,VWS V14.00,2013-04-28 23:41:00,
2013-04-28 19:46:00,61.5,35.7,30.17,SSE,159,0.0,5.0,38,0.00,,CLR,0.00,VWS V14.00,2013-04-28 23:46:00,
2013-04-28 19:51:00,61.3,35.5,30.17,SE,138,1.0,3.0,38,0.00,,CLR,0.00,VWS V14.00,2013-04-28 23:51:00,
2013-04-28 19:56:00,61.1,36.0,30.17,South,173,1.0,3.0,39,0.00,,CLR,0.00,VWS V14.00,2013-04-28 23:56:00,
2013-04-28 20:05:00,61.0,36.5,30.17,South,180,0.0,3.0,40,0.00,,CLR,0.00,VWS V14.00,2013-04-29 00:05:00,
2013-04-28 20:10:00,60.5,34.8,30.17,SSE,156,0.0,0.0,38,0.00,,CLR,0.00,VWS V14.00,2013-04-29 00:10:00,
2013-04-28 20:15:00,60.4,34.0,30.17,SSW,196,0.0,2.0,37,0.00,,CLR,0.00,VWS V14.00,2013-04-29 00:15:00,
2013-04-28 20:20:00,60.2,35.2,30.17,SE,128,2.0,4.0,39,0.00,,CLR,0.00,VWS V14.00,2013-04-29 00:20:00,
2013-04-28 20:25:00,60.0,33.7,30.17,SSE,153,0.0,0.0,37,0.00,,CLR,0.00,VWS V14.00,2013-04-29 00:25:00,
2013-04-28 20:30:00,59.8,34.2,30.17,SE,144,0.0,1.0,38,0.00,,CLR,0.00,VWS V14.00,2013-04-29 00:30:00,
2013-04-28 20:36:00,59.6,34.0,30.17,SE,141,3.0,4.0,38,0.00,,CLR,0.00,VWS V14.00,2013-04-29 00:36:00,
2013-04-28 20:40:00,59.5,33.9,30.17,SSW,196,4.0,5.0,38,0.00,,CLR,0.00,VWS V14.00,2013-04-29 00:40:00,
2013-04-28 20:46:00,59.3,33.7,30.18,SSE,155,0.0,0.0,38,0.00,,CLR,0.00,VWS V14.00,2013-04-29 00:46:00,
2013-04-28 20:51:00,59.0,32.8,30.18,South,182,0.0,0.0,37,0.00,,CLR,0.00,VWS V14.00,2013-04-29 00:51:00,
2013-04-28 20:56:00,59.0,32.8,30.18,SSE,157,5.0,5.0,37,0.00,,CLR,0.00,VWS V14.00,2013-04-29 00:56:00,
2013-04-28 21:01:00,59.0,32.8,30.18,SW,227,7.0,7.0,37,0.00,,OVC120,0.00,VWS V14.00,2013-04-29 01:01:00,
2013-04-28 21:05:00,59.0,32.8,30.18,SSE,168,0.0,1.0,37,0.00,,OVC120,0.00,VWS V14.00,2013-04-29 01:05:00,
2013-04-28 21:11:00,59.0,34.1,30.18,SE,139,0.0,1.0,39,0.00,,OVC120,0.00,VWS V14.00,2013-04-29 01:11:00,
2013-04-28 21:16:00,58.8,34.5,30.18,South,185,0.0,0.0,40,0.00,,OVC120,0.00,VWS V14.00,2013-04-29 01:16:00,
2013-04-28 21:21:00,58.6,35.0,30.18,SE,140,0.0,1.0,41,0.00,,OVC120,0.00,VWS V14.00,2013-04-29 01:21:00,
2013-04-28 21:26:00,58.5,34.3,30.18,ESE,108,0.0,1.0,40,0.00,,OVC120,0.00,VWS V14.00,2013-04-29 01:26:00,
2013-04-28 21:31:00,58.4,34.8,30.19,SSW,200,5.0,6.0,41,0.00,,OVC120,0.00,VWS V14.00,2013-04-29 01:31:00,
2013-04-28 21:36:00,58.4,35.4,30.19,SSE,165,0.0,0.0,42,0.00,,OVC120,0.00,VWS V14.00,2013-04-29 01:36:00,
2013-04-28 21:41:00,58.3,36.5,30.19,SSE,148,3.0,3.0,44,0.00,,OVC120,0.00,VWS V14.00,2013-04-29 01:41:00,
2013-04-28 21:46:00,58.2,37.5,30.19,SSE,159,0.0,0.0,46,0.00,,OVC120,0.00,VWS V14.00,2013-04-29 01:46:00,
2013-04-28 21:51:00,58.2,38.6,30.19,SE,125,2.0,3.0,48,0.00,,OVC120,0.00,VWS V14.00,2013-04-29 01:51:00,
2013-04-28 21:56:00,58.1,39.1,30.19,SSW,192,5.0,5.0,49,0.00,,OVC120,0.00,VWS V14.00,2013-04-29 01:56:00,
2013-04-28 22:01:00,58.0,39.5,30.19,SSE,148,0.0,0.0,50,0.00,,OVC060,0.00,VWS V14.00,2013-04-29 02:01:00,
2013-04-28 22:06:00,57.8,39.8,30.19,SSE,148,0.0,0.0,51,0.00,,OVC060,0.00,VWS V14.00,2013-04-29 02:06:00,
2013-04-28 22:11:00,57.8,40.3,30.19,SSW,192,3.0,4.0,52,0.00,,OVC060,0.00,VWS V14.00,2013-04-29 02:11:00,
2013-04-28 22:16:00,57.7,41.2,30.20,SSE,150,1.0,2.0,54,0.00,,OVC060,0.00,VWS V14.00,2013-04-29 02:16:00,
2013-04-28 22:21:00,57.6,41.6,30.20,South,182,0.0,0.0,55,0.00,,OVC060,0.00,VWS V14.00,2013-04-29 02:21:00,
2013-04-28 22:26:00,57.5,41.9,30.20,South,177,1.0,3.0,56,0.00,,OVC060,0.00,VWS V14.00,2013-04-29 02:26:00,
2013-04-28 22:31:00,57.4,42.3,30.20,South,175,0.0,0.0,57,0.00,,OVC060,0.00,VWS V14.00,2013-04-29 02:31:00,
2013-04-28 22:36:00,57.3,42.2,30.20,SSE,163,0.0,0.0,57,0.00,,OVC060,0.00,VWS V14.00,2013-04-29 02:36:00,
2013-04-28 22:41:00,57.2,42.1,30.20,SSE,163,0.0,0.0,57,0.00,,OVC060,0.00,VWS V14.00,2013-04-29 02:41:00,
2013-04-28 22:46:00,57.1,42.5,30.20,SSE,163,2.0,2.0,58,0.00,,OVC060,0.00,VWS V14.00,2013-04-29 02:46:00,
2013-04-28 22:51:00,57.0,42.8,30.20,South,172,0.0,0.0,59,0.00,,OVC060,0.00,VWS V14.00,2013-04-29 02:51:00,
2013-04-28 22:56:00,56.9,43.2,30.20,South,172,0.0,0.0,60,0.00,,OVC060,0.00,VWS V14.00,2013-04-29 02:56:00,
2013-04-28 23:01:00,56.8,43.5,30.20,South,172,0.0,0.0,61,0.00,,OVC080,0.00,VWS V14.00,2013-04-29 03:01:00,
2013-04-28 23:06:00,56.7,44.3,30.20,South,172,0.0,0.0,63,0.00,,OVC080,0.00,VWS V14.00,2013-04-29 03:06:00,
2013-04-28 23:11:00,56.5,44.5,30.20,South,172,0.0,0.0,64,0.00,,OVC080,0.00,VWS V14.00,2013-04-29 03:11:00,
2013-04-28 23:16:00,56.2,44.6,30.20,South,172,0.0,0.0,65,0.00,,OVC080,0.00,VWS V14.00,2013-04-29 03:16:00,
2013-04-28 23:21:00,55.9,45.1,30.20,South,172,0.0,0.0,67,0.00,,OVC080,0.00,VWS V14.00,2013-04-29 03:21:00,
2013-04-28 23:26:00,55.7,44.9,30.20,South,172,0.0,0.0,67,0.00,,OVC080,0.00,VWS V14.00,2013-04-29 03:26:00,
2013-04-28 23:31:00,55.5,45.1,30.20,South,172,0.0,0.0,68,0.00,,OVC080,0.00,VWS V14.00,2013-04-29 03:31:00,
2013-04-28 23:36:00,55.3,45.3,30.20,South,172,0.0,0.0,69,0.00,,OVC080,0.00,VWS V14.00,2013-04-29 03:36:00,
2013-04-28 23:41:00,55.1,45.5,30.20,South,172,0.0,0.0,70,0.00,,OVC080,0.00,VWS V14.00,2013-04-29 03:41:00,
2013-04-28 23:46:00,54.9,45.3,30.20,South,172,0.0,0.0,70,0.00,,OVC080,0.00,VWS V14.00,2013-04-29 03:46:00,
2013-04-28 23:51:00,54.7,45.1,30.20,South,172,0.0,0.0,70,0.00,,OVC080,0.00,VWS V14.00,2013-04-29 03:51:00,
2013-04-28 23:56:00,54.6,44.7,30.20,South,172,0.0,0.0,69,0.00,,OVC080,0.00,VWS V14.00,2013-04-29 03:56:00,